When you browse on this site, cookies collect data to enhance your experience and personalize the content and advertising you see.
Visit our Privacy Policy to learn more. By continuing to use the site, you agree to this use of cookies and data.
  • In Lithuania
  • List of Countries
  • For 7 days
  • Water Temperature
  • Satellite Maps
  • Weather Map
  • Weather Widgets
  • user-avatar
    Login

    Hourly Weather Newport

    Today, 19 June, Wednesday

    Time Temperature Precipitation Wind Pressure Humidity
    00:00 +13°C° 0 mm 3 mps 753 mmHg 96%
    01:00 +13°C° 0 mm 3 mps 752 mmHg 96%
    02:00 +13°C° 0 mm 4 mps 752 mmHg 96%
    03:00 +12°C° 0 mm 4 mps 751 mmHg 96%
    04:00 +13°C° 0 mm 4 mps 751 mmHg 95%
    05:00 +13°C° 0 mm 4 mps 751 mmHg 94%
    06:00 +14°C° 0 mm 3 mps 751 mmHg 93%
    07:00 +14°C° 0 mm 3 mps 751 mmHg 93%
    08:00 +16°C° 0 mm 3 mps 752 mmHg 93%
    09:00 +16°C° 0 mm 3 mps 752 mmHg 93%
    10:00 +17°C° 0.1 mm 3 mps 752 mmHg 91%
    11:00 +17°C° 0.1 mm 3 mps 752 mmHg 89%
    12:00 +18°C° 0.1 mm 3 mps 753 mmHg 87%
    13:00 +18°C° 0.3 mm 4 mps 753 mmHg 87%
    14:00 +17°C° 0.3 mm 5 mps 753 mmHg 86%
    15:00 +17°C° 0.3 mm 6 mps 753 mmHg 85%
    16:00 +17°C° 0.2 mm 6 mps 753 mmHg 85%
    17:00 +16°C° 0.2 mm 5 mps 753 mmHg 84%
    18:00 +16°C° 0.2 mm 5 mps 753 mmHg 84%
    19:00 +15°C° 0 mm 5 mps 753 mmHg 84%
    20:00 +13°C° 0 mm 5 mps 754 mmHg 84%
    21:00 +12°C° 0 mm 5 mps 754 mmHg 84%
    22:00 +10°C° 0 mm 5 mps 754 mmHg 85%
    23:00 +9°C° 0 mm 5 mps 755 mmHg 86%

    Tomorrow, 20 June, Thursday

    Time Temperature Precipitation Wind Pressure Humidity
    00:00 +8°C° 0 mm 5 mps 755 mmHg 88%
    01:00 +8°C° 0 mm 5 mps 755 mmHg 90%
    02:00 +8°C° 0 mm 5 mps 755 mmHg 91%
    03:00 +8°C° 0 mm 5 mps 755 mmHg 93%
    04:00 +9°C° 0 mm 5 mps 755 mmHg 91%
    05:00 +9°C° 0 mm 5 mps 755 mmHg 89%
    06:00 +10°C° 0 mm 5 mps 756 mmHg 87%
    07:00 +12°C° 0 mm 5 mps 756 mmHg 83%
    08:00 +14°C° 0 mm 5 mps 756 mmHg 80%
    09:00 +15°C° 0 mm 6 mps 756 mmHg 76%
    10:00 +15°C° 0.1 mm 6 mps 756 mmHg 76%
    11:00 +15°C° 0.1 mm 7 mps 757 mmHg 77%
    12:00 +15°C° 0.1 mm 7 mps 757 mmHg 77%
    13:00 +15°C° 0.1 mm 7 mps 757 mmHg 78%
    14:00 +15°C° 0.1 mm 7 mps 757 mmHg 78%
    15:00 +15°C° 0.1 mm 8 mps 757 mmHg 79%
    16:00 +15°C° 0.1 mm 7 mps 757 mmHg 81%
    17:00 +15°C° 0.1 mm 7 mps 757 mmHg 83%
    18:00 +14°C° 0.1 mm 6 mps 758 mmHg 85%
    19:00 +13°C° 0.1 mm 5 mps 758 mmHg 86%
    20:00 +12°C° 0.1 mm 5 mps 758 mmHg 87%
    21:00 +11°C° 0.1 mm 4 mps 759 mmHg 89%
    22:00 +11°C° 0 mm 4 mps 759 mmHg 89%
    23:00 +10°C° 0 mm 4 mps 759 mmHg 89%

    Day after tomorrow, 21 June, Friday

    Time Temperature Precipitation Wind Pressure Humidity
    00:00 +9°C° 0 mm 3 mps 759 mmHg 90%
    01:00 +9°C° 0 mm 3 mps 759 mmHg 90%
    02:00 +9°C° 0 mm 3 mps 759 mmHg 89%
    03:00 +8°C° 0 mm 3 mps 759 mmHg 89%
    04:00 +9°C° 0 mm 3 mps 760 mmHg 88%
    05:00 +9°C° 0 mm 3 mps 760 mmHg 87%
    06:00 +10°C° 0 mm 4 mps 760 mmHg 87%
    07:00 +11°C° 0 mm 3 mps 760 mmHg 81%
    08:00 +13°C° 0 mm 3 mps 760 mmHg 75%
    09:00 +14°C° 0 mm 3 mps 761 mmHg 70%
    10:00 +16°C° 0 mm 3 mps 761 mmHg 68%
    11:00 +15°C° 0 mm 4 mps 761 mmHg 67%
    12:00 +15°C° 0 mm 4 mps 761 mmHg 66%
    13:00 +15°C° 0 mm 4 mps 761 mmHg 66%
    14:00 +17°C° 0 mm 4 mps 761 mmHg 65%
    15:00 +16°C° 0 mm 5 mps 761 mmHg 65%
    16:00 +16°C° 0 mm 5 mps 761 mmHg 68%
    17:00 +16°C° 0 mm 5 mps 762 mmHg 70%
    18:00 +17°C° 0 mm 4 mps 762 mmHg 73%
    19:00 +14°C° 0 mm 4 mps 762 mmHg 78%
    20:00 +13°C° 0 mm 4 mps 762 mmHg 82%
    21:00 +12°C° 0 mm 3 mps 762 mmHg 87%
    22:00 +11°C° 0 mm 3 mps 762 mmHg 86%
    23:00 +10°C° 0 mm 2 mps 762 mmHg 85%

    22 June, Saturday

    Time Temperature Precipitation Wind Pressure Humidity
    00:00 +11°C° 0 mm 1 mps 762 mmHg 83%
    01:00 +9°C° 0 mm 2 mps 762 mmHg 83%
    02:00 +8°C° 0 mm 2 mps 762 mmHg 82%
    03:00 +8°C° 0 mm 2 mps 762 mmHg 82%
    04:00 +10°C° 0 mm 1 mps 762 mmHg 81%
    05:00 +11°C° 0 mm 1 mps 762 mmHg 80%
    06:00 +11°C° 0 mm 1 mps 762 mmHg 79%
    07:00 +13°C° 0 mm 1 mps 762 mmHg 74%
    08:00 +15°C° 0 mm 1 mps 762 mmHg 68%
    09:00 +15°C° 0 mm 0 mps 762 mmHg 62%
    10:00 +18°C° 0 mm 1 mps 762 mmHg 61%
    11:00 +18°C° 0 mm 1 mps 762 mmHg 61%
    12:00 +19°C° 0 mm 1 mps 762 mmHg 60%
    13:00 +19°C° 0 mm 1 mps 762 mmHg 61%
    14:00 +18°C° 0 mm 2 mps 762 mmHg 61%
    15:00 +18°C° 0 mm 2 mps 761 mmHg 62%
    16:00 +18°C° 0 mm 2 mps 761 mmHg 65%
    17:00 +17°C° 0 mm 2 mps 761 mmHg 67%
    18:00 +17°C° 0 mm 2 mps 761 mmHg 69%
    19:00 +16°C° 0 mm 2 mps 761 mmHg 73%
    20:00 +14°C° 0 mm 2 mps 761 mmHg 77%
    21:00 +13°C° 0 mm 2 mps 762 mmHg 81%
    22:00 +13°C° 0 mm 2 mps 761 mmHg 81%
    23:00 +12°C° 0 mm 3 mps 761 mmHg 82%

    23 June, Sunday

    Time Temperature Precipitation Wind Pressure Humidity
    00:00 +11°C° 0 mm 4 mps 761 mmHg 83%
    01:00 +11°C° 0 mm 4 mps 761 mmHg 84%
    02:00 +10°C° 0 mm 5 mps 761 mmHg 85%
    03:00 +10°C° 0 mm 5 mps 761 mmHg 87%
    04:00 +12°C° 0 mm 5 mps 761 mmHg 85%
    05:00 +11°C° 0 mm 6 mps 760 mmHg 82%
    06:00 +13°C° 0 mm 6 mps 760 mmHg 80%
    07:00 +14°C° 0 mm 6 mps 760 mmHg 78%
    08:00 +15°C° 0 mm 7 mps 760 mmHg 76%
    09:00 +16°C° 0 mm 7 mps 760 mmHg 74%
    10:00 +17°C° 0 mm 7 mps 760 mmHg 73%
    11:00 +17°C° 0 mm 8 mps 760 mmHg 72%
    12:00 +18°C° 0 mm 8 mps 760 mmHg 71%
    13:00 +18°C° 0 mm 7 mps 760 mmHg 73%
    14:00 +18°C° 0 mm 7 mps 759 mmHg 74%
    15:00 +17°C° 0 mm 7 mps 759 mmHg 76%
    16:00 +17°C° 0 mm 7 mps 759 mmHg 76%
    17:00 +18°C° 0 mm 8 mps 758 mmHg 77%
    18:00 +18°C° 0 mm 9 mps 758 mmHg 78%
    19:00 +17°C° 0 mm 9 mps 758 mmHg 77%
    20:00 +17°C° 0 mm 9 mps 758 mmHg 76%
    21:00 +16°C° 0 mm 9 mps 758 mmHg 75%
    22:00 +17°C° 0 mm 9 mps 758 mmHg 75%
    23:00 +17°C° 0 mm 9 mps 757 mmHg 75%

    24 June, Monday

    Time Temperature Precipitation Wind Pressure Humidity
    00:00 +17°C° 0 mm 10 mps 757 mmHg 75%
    01:00 +17°C° 0 mm 10 mps 757 mmHg 77%
    02:00 +17°C° 0 mm 10 mps 757 mmHg 79%
    03:00 +17°C° 0 mm 10 mps 756 mmHg 82%
    04:00 +17°C° 0.1 mm 10 mps 756 mmHg 84%
    05:00 +17°C° 0.1 mm 9 mps 756 mmHg 86%
    06:00 +16°C° 0.1 mm 9 mps 756 mmHg 88%
    07:00 +17°C° 0 mm 9 mps 756 mmHg 87%
    08:00 +17°C° 0 mm 8 mps 756 mmHg 86%
    09:00 +17°C° 0 mm 8 mps 756 mmHg 85%
    10:00 +18°C° 0 mm 8 mps 756 mmHg 83%
    11:00 +18°C° 0 mm 8 mps 756 mmHg 82%
    12:00 +20°C° 0 mm 8 mps 756 mmHg 80%
    13:00 +20°C° 0 mm 7 mps 756 mmHg 83%
    14:00 +20°C° 0 mm 7 mps 756 mmHg 85%
    15:00 +20°C° 0 mm 6 mps 756 mmHg 87%
    16:00 +20°C° 0 mm 5 mps 757 mmHg 87%
    17:00 +21°C° 0 mm 3 mps 757 mmHg 87%
    18:00 +21°C° 0 mm 2 mps 757 mmHg 87%
    19:00 +20°C° 0 mm 2 mps 757 mmHg 89%
    20:00 +19°C° 0 mm 2 mps 758 mmHg 92%
    21:00 +19°C° 0 mm 1 mps 758 mmHg 94%
    22:00 +18°C° 0 mm 2 mps 758 mmHg 94%
    23:00 +18°C° 0 mm 2 mps 758 mmHg 95%
    Show more